Home   Weather   Kings County   Past weeks

Flag for Canada Past Weather in Kings County, Nova Scotia, Canada — Yesterday and Last 2 Weeks

Now
27 °F

Chilly.


Feels Like: 20 °F
Forecast: 23 / 35 °F
Wind: 6 mph from Northwest

Location: Kentville

Current Time: Jan 20, 2017 at 8:19:59 pm

Latest Report: Jan 20, 2017 at 8:00 pm


Visibility: N/A

Pressure: 29.96 "Hg

Humidity: 86%

Dew Point: 23 °F

Location of Kings CountyLocation

Past Weather in Kings County — Graph

°F

Kings County Temperature Yesterday

Maximum temperature yesterday: 31 °F (at 11:00 pm)
Minimum temperature yesterday: 20 °F (at 12:00 am)
Average temperature yesterday: 26 °F

High & Low Weather Summary for the Past Weeks

 TemperatureHumidityPressure
High52 °F (Jan 12, 5:00 pm)100% (Jan 6, 3:00 pm)30.76 "Hg (Jan 6, 3:00 pm)
Low2 °F (Jan 9, 8:00 am)34% (Jan 13, 7:00 pm)29.65 "Hg (Jan 8, 6:00 am)
Average24 °F78%30.19 "Hg
* Reported Jan 5 7:00 pm — Jan 20 7:00 pm, Kings County, Weather by CustomWeather, © 2017

Note: Actual official high and low records may vary slightly from our data, if they occured in-between our weather recording intervals... More about our weather records

Advertising

Kings County Weather History for the Previous 24 Hours

Scroll right to see more
 ConditionsComfort  
Time TempWeatherWind HumidityBarometerVisibility
7:00 pm
Fri, Jan 20
27 °FChilly.7 mph86%29.95 "HgN/A
6:00 pm28 °FChilly.5 mph88%29.95 "HgN/A
5:00 pm28 °FChilly.5 mph85%29.96 "HgN/A
4:00 pm29 °FChilly.5 mph84%29.95 "HgN/A
2:00 pm29 °FChilly.5 mph85%29.94 "HgN/A
1:00 pm28 °FChilly.8 mph90%29.94 "HgN/A
12:00 pm30 °FChilly.6 mph83%29.95 "HgN/A
11:00 am30 °FChilly.5 mph82%29.97 "HgN/A
10:00 am30 °FChilly.2 mph83%29.96 "HgN/A
9:00 am30 °FChilly.3 mph85%29.93 "HgN/A
8:00 am30 °FChilly.6 mph83%29.91 "HgN/A
7:00 am30 °FChilly.8 mph83%29.90 "HgN/A
5:00 am31 °FChilly.6 mph88%29.89 "HgN/A
4:00 am31 °FChilly.6 mph92%29.88 "HgN/A
3:00 am32 °FChilly.7 mph95%29.89 "HgN/A
2:00 am31 °FChilly.2 mph96%29.88 "HgN/A
1:00 am30 °FChilly.2 mph95%29.88 "HgN/A
12:00 am31 °FChilly.3 mph94%29.88 "HgN/A
11:00 pm
Thu, Jan 19
31 °FChilly.1 mph96%29.89 "HgN/A
10:00 pm29 °FChilly.2 mph97%29.90 "HgN/A
9:00 pm28 °FChilly.1 mph97%29.90 "HgN/A
8:00 pm29 °FChilly.No wind90%29.90 "HgN/A
Weather by CustomWeather, © 2017

See weather overviewHow to use our weather pages